STARLINK-5911, 55950

Orbit data source: Space-Track

STARLINK-5911, 55950 is a payload satellite owned by SpaceX/Seattle (US) in LEO that was launched on Fri, 17 Mar 2023 UTC via an FALCON 9 launch vehicle from the Air Force Western Test Range (AFWTR). Payload-class satellites include a variety of spacecraft equipped with specific instruments for various scientific and technological missions. These include communications satellites like Starlink; space stations such as the ISS; scientific satellites like the Hubble; Earth observation satellites from companies like Planet Labs, Umbra, and HawkEye 360; GPS; miniature CubeSats for education and research; and military/defense satellites.

Loading next visibility...
Identifier
55950, 2023-037AN
Orbit
LEO
Country
Flag of USUS
Related business
Manufacturer
SpaceX/Seattle
Mission
Operational Commercial Communications
Bus & Motor
STARLINK, Unknown motor
Mass
305 kg wet, ~290 kg dry
Launch date (UTC)
2023-03-17 (3 years ago)
Launch vehicle
FALCON 9
Launch site
Air Force Western Test Range (AFWTR)
Object type
Payload
Rocket body
Debris
Shape & HBR
Box + 1 Pan, 10.1 m
Radar Cross Section
11.087 m², Large (>1 m²)

Expand to show TLE details & history
Last TLE update: 3 days ago

TLE from 3 days ago
0 STARLINK-5911
1 55950U 23037AN  26170.91687221  .00000095  00000-0  15787-4 0  9997
2 55950  70.0003   6.7952 0002945 267.0690  93.0132 14.98330276179788
Epoch: 2026-06-19T22:00Z
TLE epoch observation values (Epoch: 2026-06-19T22:00:17.758Z)
Latitude
-0.00006°
Longitude
128.58221°
Altitude
574.587 km
Speed
7.574 km/s
True Right ascension
00h 27m 10s
True Declination
0° 00' 00"
Sunlit
Object was in daylight at epoch
Visualization orbit readout
Latitude
Unknown
Longitude
Unknown
Altitude
Unknown
Speed
Unknown
Apparent Right ascension
Unknown
Apparent Declination
Unknown
Sunlit
N/A
Visualization observer readout
Local Sidereal Time
21:35:04
Azimuth
Unknown
Elevation
Unknown
Doppler factor
Unknown
Orbital elements
Apogee altitude
572.049 km
Perigee altitude
567.957 km
Semi-major axis
6,948.14 km
Eccentricity
0.00029
Inclination
70.0003°
RAAN
6.7952°
Arg. of periapsis
267.069°
True anomaly
93.0469°
Mean anomaly
93.0132°
Eccentric anomaly
93.03005°
Mean motion
3.74749 °/min
Orbital period
96.06 mins
BSTAR
0.000015787
Loading maneuver chart data...
Computing Atmospheric mass density...
Loading historical data...
Loading historical data...
Loading historical data...
Loading historical data...
Loading historical data...
Loading historical data...
Loading historical data...

Documentation

Showing up to 5 results
|